Weather History for KFRM - January, 2013

Change the Weather History Date:

Monday, January 7, 2013

  Actual Average Record
Temperature  
Mean Temperature 27 °F -  
Max Temperature 35 °F 17 °F 57 °F (2003)
Min Temperature 19 °F -1 °F -22 °F (1986)
Degree Days  
Heating Degree Days 38    
Moisture  
Dew Point 20 °F    
Average Humidity 77    
Maximum Humidity 93    
Minimum Humidity 65    
Precipitation  
Precipitation 0.00 in - - ()
Sea Level Pressure  
Sea Level Pressure 29.94 in    
Wind  
Wind Speed 16 mph (SW)    
Max Wind Speed 28 mph    
Max Gust Speed 33 mph    
Visibility 10 miles    
Events      
Averages and records for this station are not official NWS values.
T = Trace of Precipitation, MM = Missing Value Source: NWS Daily Summary

Daily Weather History Graph

Daily Weather History Graph

Search for Another Location

Airport or City:

Trip Planner

Search our weather history database for the weather conditions in past years. The results will help you decide how hot, cold, wet, or windy it might be!

Date:

Astronomy

Jan. 07, 2013 Rise Set
Actual Time 7:50 AM CST 4:57 PM CST
Civil Twilight 7:18 AM CST 5:30 PM CST
Nautical Twilight 6:42 AM CST 6:05 PM CST
Astronomical Twilight 6:07 AM CST 6:40 PM CST
Moon 3:13 AM CST (1/7) 1:10 PM CST (1/7)
Length of Visible Light 10h 11m
Length of Day
9h 06m
Waning Crescent, 22% of the Moon is Illuminated
Jan 7
Waning Crescent
Jan 11
New
Jan 18
First Quarter
Jan 26
Full
Feb 3
Last Quarter

Hourly Weather History & Observations

Time (CST) Temp. Windchill Dew Point Humidity Pressure Visibility Wind Dir Wind Speed Gust Speed Precip Events Conditions
12:15 AM 21.2 °F 5.2 °F 15.8 °F 80% 29.99 in 10.0 mi South 21.9 mph - N/A   Clear
12:35 AM 21.2 °F 4.9 °F 15.8 °F 80% 29.97 in 10.0 mi South 23.0 mph - N/A   Clear
12:55 AM 21.2 °F 4.9 °F 15.8 °F 80% 29.96 in 10.0 mi South 23.0 mph - N/A   Clear
1:15 AM 21.2 °F 4.2 °F 17.6 °F 86% 29.94 in 10.0 mi South 25.3 mph 29.9 mph N/A   Clear
1:35 AM 24.8 °F 8.4 °F 17.6 °F 74% 29.93 in 10.0 mi South 27.6 mph 33.4 mph N/A   Clear
1:55 AM 24.8 °F 9.3 °F 17.6 °F 74% 29.93 in 10.0 mi South 24.2 mph 33.4 mph N/A   Clear
2:15 AM 23.0 °F 8.3 °F 17.6 °F 80% 29.95 in 10.0 mi South 19.6 mph - N/A   Clear
2:35 AM 24.8 °F 9.6 °F 17.6 °F 74% 29.95 in 10.0 mi South 23.0 mph - N/A   Clear
2:55 AM 26.6 °F 12.4 °F 17.6 °F 69% 29.95 in 10.0 mi South 21.9 mph - N/A   Clear
3:15 AM 24.8 °F 10.0 °F 19.4 °F 80% 29.95 in 10.0 mi South 21.9 mph - N/A   Clear
3:35 AM 26.6 °F 12.7 °F 19.4 °F 74% 29.94 in 10.0 mi South 20.7 mph - N/A   Clear
3:55 AM 24.8 °F 9.0 °F 17.6 °F 74% 29.92 in 10.0 mi South 25.3 mph - N/A   Clear
4:15 AM 24.8 °F 10.0 °F 17.6 °F 74% 29.92 in 10.0 mi South 21.9 mph - N/A   Clear
4:35 AM 23.0 °F 7.2 °F 17.6 °F 80% 29.90 in 10.0 mi South 23.0 mph - N/A   Clear
4:55 AM 24.8 °F 9.6 °F 17.6 °F 74% 29.89 in 10.0 mi South 23.0 mph - N/A   Clear
5:15 AM 24.8 °F 11.5 °F 17.6 °F 74% 29.89 in 10.0 mi South 17.3 mph - N/A   Clear
5:35 AM 23.0 °F 10.6 °F 17.6 °F 80% 29.89 in 10.0 mi South 13.8 mph - N/A   Clear
5:55 AM 23.0 °F 12.4 °F 17.6 °F 80% 29.91 in 10.0 mi South 10.4 mph - N/A   Clear
6:15 AM 23.0 °F 11.7 °F 15.8 °F 74% 29.92 in 10.0 mi SSW 11.5 mph - N/A   Clear
6:35 AM 24.8 °F 11.9 °F 17.6 °F 74% 29.91 in 10.0 mi SSW 16.1 mph - N/A   Clear
6:55 AM 23.0 °F 10.1 °F 17.6 °F 80% 29.91 in 10.0 mi South 15.0 mph - N/A   Clear
7:15 AM 21.2 °F 10.9 °F 17.6 °F 86% 29.91 in 10.0 mi SSW 9.2 mph - N/A   Clear
7:35 AM 23.0 °F 12.4 °F 17.6 °F 80% 29.91 in 10.0 mi SSW 10.4 mph - N/A   Clear
7:55 AM 23.0 °F 13.9 °F 17.6 °F 80% 29.92 in 10.0 mi SSW 8.1 mph - N/A   Clear
8:15 AM 23.0 °F 15.8 °F 17.6 °F 80% 29.92 in 10.0 mi SSW 5.8 mph - N/A   Clear
8:35 AM 23.0 °F 13.1 °F 17.6 °F 80% 29.92 in 10.0 mi SSW 9.2 mph - N/A   Clear
8:55 AM 24.8 °F 14.0 °F 17.6 °F 74% 29.93 in 10.0 mi SSW 11.5 mph - N/A   Clear
9:15 AM 24.8 °F 14.0 °F 19.4 °F 80% 29.94 in 10.0 mi SSW 11.5 mph - N/A   Clear
9:35 AM 26.6 °F 16.2 °F 19.4 °F 74% 29.94 in 10.0 mi SW 11.5 mph - N/A   Clear
9:55 AM 28.4 °F 17.5 °F 21.2 °F 74% 29.94 in 10.0 mi SSW 13.8 mph - N/A   Clear
10:15 AM 30.2 °F 20.2 °F 21.2 °F 69% 29.94 in 10.0 mi SW 12.7 mph - N/A   Clear
10:35 AM 32.0 °F 21.6 °F 23.0 °F 69% 29.96 in 10.0 mi WSW 15.0 mph 19.6 mph N/A   Clear
10:55 AM 32.0 °F 22.1 °F 23.0 °F 69% 29.96 in 10.0 mi WSW 13.8 mph - N/A   Clear
11:15 AM 32.0 °F 22.1 °F 23.0 °F 69% 29.95 in 10.0 mi SW 13.8 mph 17.3 mph N/A   Clear
11:35 AM 32.0 °F 21.6 °F 24.8 °F 75% 29.94 in 10.0 mi WSW 15.0 mph - N/A   Clear
11:55 AM 32.0 °F 23.6 °F 23.0 °F 69% 29.93 in 10.0 mi WSW 10.4 mph - N/A   Clear
12:15 PM 32.0 °F 23.6 °F 24.8 °F 75% 29.92 in 10.0 mi WSW 10.4 mph - N/A   Clear
12:35 PM 33.8 °F 25.3 °F 24.8 °F 70% 29.92 in 10.0 mi WSW 11.5 mph - N/A   Clear
1:15 PM 33.8 °F 27.0 °F 24.8 °F 70% 29.92 in 10.0 mi WSW 8.1 mph - N/A   Clear
1:35 PM 35.6 °F 28.0 °F 24.8 °F 65% 29.92 in 10.0 mi WSW 10.4 mph - N/A   Clear
1:55 PM 35.6 °F 29.2 °F 24.8 °F 65% 29.92 in 10.0 mi SW 8.1 mph - N/A   Clear
2:15 PM 35.6 °F 28.6 °F 24.8 °F 65% 29.93 in 10.0 mi SW 9.2 mph - N/A   Clear
2:55 PM 35.6 °F 29.9 °F 26.6 °F 70% 29.94 in 10.0 mi WSW 6.9 mph - N/A   Clear
3:15 PM 35.6 °F 30.7 °F 24.8 °F 65% 29.94 in 10.0 mi SW 5.8 mph - N/A   Clear
3:35 PM 33.8 °F 27.0 °F 26.6 °F 75% 29.94 in 10.0 mi SSW 8.1 mph - N/A   Clear
3:55 PM 32.0 °F 25.6 °F 24.8 °F 75% 29.94 in 10.0 mi SW 6.9 mph - N/A   Clear
4:15 PM 30.2 °F 24.3 °F 24.8 °F 80% 29.95 in 10.0 mi SW 5.8 mph - N/A   Clear
4:35 PM 30.2 °F 23.4 °F 23.0 °F 75% 29.94 in 10.0 mi SW 6.9 mph - N/A   Clear
5:15 PM 28.4 °F 20.4 °F 24.8 °F 86% 29.95 in 10.0 mi WSW 8.1 mph - N/A   Clear
5:35 PM 28.4 °F 19.7 °F 23.0 °F 80% 29.96 in 10.0 mi WSW 9.2 mph - N/A   Clear
5:55 PM 28.4 °F 23.3 °F 23.0 °F 80% 29.96 in 10.0 mi SW 4.6 mph - N/A   Clear
6:15 PM 24.8 °F 16.9 °F 21.2 °F 86% 29.96 in 10.0 mi SW 6.9 mph - N/A   Clear
6:35 PM 26.6 °F 19.1 °F 21.2 °F 80% 29.96 in 10.0 mi SW 6.9 mph - N/A   Clear
6:55 PM 24.8 °F 16.9 °F 19.4 °F 80% 29.96 in 10.0 mi WSW 6.9 mph - N/A   Clear
7:15 PM 24.8 °F 20.5 °F 21.2 °F 86% 29.96 in 10.0 mi SW 3.5 mph - N/A   Clear
7:35 PM 26.6 °F 18.2 °F 21.2 °F 80% 29.96 in 10.0 mi WSW 8.1 mph - N/A   Clear
7:55 PM 24.8 °F 20.5 °F 19.4 °F 80% 29.96 in 10.0 mi WSW 3.5 mph - N/A   Clear
8:15 PM 23.0 °F 15.8 °F 19.4 °F 86% 29.96 in 10.0 mi SW 5.8 mph - N/A   Clear
8:35 PM 21.2 °F 14.9 °F 17.6 °F 86% 29.96 in 10.0 mi WSW 4.6 mph - N/A   Clear
8:55 PM 21.2 °F 12.6 °F 17.6 °F 86% 29.96 in 10.0 mi SW 6.9 mph - N/A   Clear
9:15 PM 21.2 °F 14.9 °F 17.6 °F 86% 29.96 in 10.0 mi SSW 4.6 mph - N/A   Clear
9:35 PM 19.4 °F 11.5 °F 17.6 °F 93% 29.96 in 10.0 mi SW 5.8 mph - N/A   Clear
9:55 PM 21.2 °F 13.6 °F 17.6 °F 86% 29.95 in 10.0 mi SW 5.8 mph - N/A   Clear
10:15 PM 19.4 °F - 15.8 °F 86% 29.95 in 10.0 mi Calm Calm - N/A   Clear
10:35 PM 21.2 °F 14.9 °F 17.6 °F 86% 29.96 in 10.0 mi West 4.6 mph - N/A   Clear
10:55 PM 21.2 °F - 15.8 °F 80% 29.95 in 10.0 mi Calm Calm - N/A   Clear
11:15 PM 21.2 °F 14.9 °F 15.8 °F 80% 29.95 in 10.0 mi WSW 4.6 mph - N/A   Clear
11:35 PM 21.2 °F 16.4 °F 15.8 °F 80% 29.95 in 10.0 mi WSW 3.5 mph - N/A   Clear
11:55 PM 21.2 °F 16.4 °F 15.8 °F 80% 29.95 in 10.0 mi WSW 3.5 mph - N/A   Clear